Change the Weather History Date:

Monday, March 25, 2013

  Actual Average (KUIN) Record (KUIN)
Temperature  
Mean Temperature 32 °F 46 °F  
Max Temperature 34 °F 56 °F 85 °F (1907)
Min Temperature 30 °F 36 °F 7 °F (1955)
Degree Days  
Heating Degree Days 33 20  
Month to date heating degree days 609  
Since 1 July heating degree days 4951  
Cooling Degree Days 0 0  
Month to date cooling degree days 0  
Year to date cooling degree days 0  
Moisture  
Dew Point 27 °F    
Average Humidity 84    
Maximum Humidity 93    
Minimum Humidity 71    
Precipitation  
Precipitation 0.00 in 0.08 in 1.85 in (1945)
Month to date precipitation 1.93  
Year to date precipitation 5.33  
Sea Level Pressure  
Sea Level Pressure 30.00 in    
Wind  
Wind Speed 10 mph (WNW)    
Max Wind Speed 14 mph    
Max Gust Speed 20 mph    
Visibility 7 miles    
Events Rain , Snow    
T = Trace of Precipitation, MM = Missing Value Source: NWS Daily Summary

Daily Weather History Graph

Daily Weather History Graph

Search for Another Location

Airport or City:

Trip Planner

Search our weather history database for the weather conditions in past years. The results will help you decide how hot, cold, wet, or windy it might be!

Date:

Astronomy

Mar. 25, 2013 Rise Set
Actual Time 6:58 AM CDT 7:20 PM CDT
Civil Twilight 6:31 AM CDT 7:47 PM CDT
Nautical Twilight 5:59 AM CDT 8:19 PM CDT
Astronomical Twilight 5:27 AM CDT 8:51 PM CDT
Moon 5:52 PM CDT (3/25) 5:41 AM CDT (3/25)
Length of Visible Light 13h 16m
Length of Day
12h 22m
Waxing Gibbous, 96% of the Moon is Illuminated
Mar 25
Waxing Gibbous
Mar 27
Full
Apr 2
Last Quarter
Apr 10
New
Apr 18
First Quarter

Hourly Weather History & Observations

Time (CDT) Temp. Windchill Dew Point Humidity Pressure Visibility Wind Dir Wind Speed Gust Speed Precip Events Conditions
12:15 AM 31.1 °F 21.4 °F 29.3 °F 93% 29.84 in 2.0 mi NW 12.7 mph - N/A Snow Light Snow
12:35 AM 31.1 °F 22.4 °F 29.3 °F 93% 29.85 in 2.0 mi WNW 10.4 mph - N/A Snow Light Snow
12:55 AM 31.1 °F 21.9 °F 29.3 °F 93% 29.85 in 3.0 mi WNW 11.5 mph - N/A Snow Light Snow
1:15 AM 31.1 °F 22.4 °F 29.3 °F 93% 29.85 in 3.0 mi WNW 10.4 mph - N/A Snow Light Snow
1:35 AM 31.1 °F 21.9 °F 29.1 °F 92% 29.85 in 3.0 mi WNW 11.5 mph - N/A Rain Light Freezing Rain
1:55 AM 31.1 °F 21.9 °F 29.3 °F 93% 29.85 in 3.0 mi WNW 11.5 mph - N/A Rain Light Freezing Rain
2:15 AM 31.1 °F 23.1 °F 29.1 °F 92% 29.85 in 2.5 mi WNW 9.2 mph 16.1 mph N/A Snow Light Snow
2:35 AM 30.9 °F 22.8 °F 28.9 °F 92% 29.85 in 5.0 mi WNW 9.2 mph - N/A Snow Light Snow
2:55 AM 30.9 °F 22.8 °F 28.9 °F 92% 29.85 in 4.0 mi WNW 9.2 mph - N/A Snow Light Snow
3:15 AM 30.9 °F 22.2 °F 28.9 °F 92% 29.85 in 4.0 mi WNW 10.4 mph - N/A Snow Light Snow
3:35 AM 31.1 °F 22.4 °F 28.8 °F 91% 29.85 in 7.0 mi WNW 10.4 mph - N/A Snow Light Snow
3:55 AM 30.9 °F 22.8 °F 28.6 °F 91% 29.85 in 4.0 mi WNW 9.2 mph - N/A Snow Light Snow
4:15 AM 30.7 °F 22.6 °F 28.6 °F 92% 29.85 in 4.0 mi WNW 9.2 mph - N/A Snow Light Snow
4:35 AM 30.9 °F 21.2 °F 28.6 °F 91% 29.86 in 5.0 mi NW 12.7 mph - N/A Snow Light Snow
4:55 AM 30.6 °F 23.8 °F 28.4 °F 92% 29.86 in 2.5 mi WNW 6.9 mph - N/A Snow Light Snow
5:15 AM 30.4 °F 22.9 °F 28.6 °F 93% 29.86 in 3.0 mi WNW 8.1 mph - N/A Rain Light Freezing Rain
5:35 AM 30.6 °F 22.4 °F 28.4 °F 92% 29.87 in 5.0 mi WNW 9.2 mph - N/A Rain Light Freezing Rain
5:55 AM 30.6 °F 21.8 °F 28.2 °F 91% 29.88 in 7.0 mi WNW 10.4 mph - N/A   Overcast
6:15 AM 30.6 °F 21.2 °F 28.2 °F 91% 29.88 in 3.0 mi NW 11.5 mph 16.1 mph N/A Snow Light Snow
6:35 AM 30.2 °F 21.9 °F 28.4 °F 93% 29.89 in 2.5 mi WNW 9.2 mph - N/A Snow Light Snow
6:55 AM 30.2 °F 21.9 °F 28.4 °F 93% 29.90 in 3.0 mi WNW 9.2 mph - N/A Snow Light Snow
7:15 AM 30.2 °F 21.9 °F 28.4 °F 93% 29.90 in 2.0 mi WNW 9.2 mph - N/A Snow Light Snow
7:35 AM 30.2 °F 21.3 °F 28.4 °F 93% 29.91 in 2.0 mi WNW 10.4 mph - N/A Snow Light Snow
7:55 AM 30.2 °F 21.3 °F 28.4 °F 93% 29.92 in 1.5 mi WNW 10.4 mph - N/A Snow Light Snow
8:15 AM 30.6 °F 22.4 °F 28.4 °F 92% 29.93 in 1.5 mi WNW 9.2 mph - N/A Snow Light Snow
8:35 AM 30.6 °F 21.2 °F 28.4 °F 92% 29.94 in 2.0 mi NW 11.5 mph 16.1 mph N/A Snow Light Snow
8:55 AM 30.6 °F 23.8 °F 28.4 °F 92% 29.95 in 3.0 mi NW 6.9 mph - N/A Snow Light Snow
9:15 AM 30.7 °F 23.3 °F 28.8 °F 92% 29.95 in 1.2 mi WNW 8.1 mph - N/A Snow Light Snow
9:35 AM 30.9 °F 23.5 °F 28.8 °F 92% 29.95 in 1.5 mi WNW 8.1 mph - N/A Snow Light Snow
9:55 AM 31.1 °F 23.1 °F 28.9 °F 92% 29.96 in 1.5 mi NW 9.2 mph - N/A Snow Light Snow
10:15 AM 31.5 °F 22.9 °F 28.9 °F 90% 29.96 in 1.8 mi WNW 10.4 mph - N/A Snow Light Snow
10:35 AM 31.8 °F 23.9 °F 28.8 °F 88% 29.97 in 2.5 mi WNW 9.2 mph - N/A Snow Light Snow
10:55 AM 32.0 °F 23.6 °F 29.1 °F 89% 29.98 in 3.0 mi WNW 10.4 mph - N/A Snow Light Snow
11:15 AM 32.0 °F 24.2 °F 29.1 °F 89% 29.99 in 5.0 mi WNW 9.2 mph 17.3 mph N/A   Overcast
11:35 AM 32.4 °F 23.0 °F 28.8 °F 87% 29.99 in 10.0 mi NW 12.7 mph - N/A   Overcast
11:55 AM 32.9 °F 24.1 °F 28.4 °F 84% 30.00 in 10.0 mi NW 11.5 mph - N/A   Overcast
12:15 PM 33.1 °F 25.5 °F 28.4 °F 83% 30.00 in 10.0 mi NW 9.2 mph 16.1 mph N/A   Overcast
12:35 PM 33.3 °F 25.1 °F 28.2 °F 82% 30.00 in 10.0 mi WNW 10.4 mph - N/A   Overcast
12:55 PM 33.4 °F 23.9 °F 28.0 °F 81% 30.01 in 10.0 mi WNW 13.8 mph - N/A   Overcast
1:15 PM 33.4 °F 24.3 °F 27.5 °F 79% 30.01 in 10.0 mi NW 12.7 mph - N/A   Overcast
1:35 PM 33.4 °F 24.3 °F 27.5 °F 79% 30.02 in 10.0 mi NW 12.7 mph - N/A   Overcast
1:55 PM 33.3 °F 24.1 °F 27.5 °F 79% 30.02 in 10.0 mi NW 12.7 mph 17.3 mph N/A   Overcast
2:15 PM 33.1 °F 24.4 °F 27.5 °F 80% 30.03 in 10.0 mi WNW 11.5 mph - N/A   Overcast
2:35 PM 33.4 °F 23.9 °F 27.5 °F 79% 30.03 in 10.0 mi WNW 13.8 mph 17.3 mph N/A   Overcast
2:55 PM 33.8 °F 24.8 °F 27.0 °F 76% 30.03 in 10.0 mi WNW 12.7 mph 19.6 mph N/A   Overcast
3:15 PM 34.0 °F 26.0 °F 26.4 °F 74% 30.04 in 10.0 mi WNW 10.4 mph 19.6 mph N/A   Mostly Cloudy
3:35 PM 34.0 °F 26.0 °F 26.4 °F 74% 30.05 in 10.0 mi WNW 10.4 mph - N/A   Overcast
3:55 PM 33.8 °F 25.8 °F 26.1 °F 73% 30.05 in 10.0 mi WNW 10.4 mph 19.6 mph N/A   Overcast
4:15 PM 34.0 °F 26.0 °F 26.1 °F 73% 30.06 in 10.0 mi WNW 10.4 mph 18.4 mph N/A   Mostly Cloudy
4:35 PM 34.2 °F 25.7 °F 25.5 °F 71% 30.06 in 10.0 mi NW 11.5 mph 17.3 mph N/A   Mostly Cloudy
4:55 PM 34.0 °F 25.0 °F 25.5 °F 71% 30.07 in 10.0 mi WNW 12.7 mph 18.4 mph N/A   Scattered Clouds
5:15 PM 33.8 °F 25.3 °F 25.2 °F 71% 30.08 in 10.0 mi WNW 11.5 mph - N/A   Clear
5:35 PM 33.6 °F 25.6 °F 25.0 °F 71% 30.08 in 10.0 mi WNW 10.4 mph - N/A   Scattered Clouds
5:55 PM 33.3 °F 24.6 °F 25.3 °F 73% 30.09 in 10.0 mi WNW 11.5 mph - N/A   Overcast
6:15 PM 33.1 °F 24.9 °F 25.0 °F 72% 30.11 in 10.0 mi WNW 10.4 mph 16.1 mph N/A   Overcast
6:35 PM 32.9 °F 24.1 °F 25.2 °F 73% 30.11 in 10.0 mi NW 11.5 mph - N/A   Overcast
6:55 PM 32.5 °F 23.7 °F 25.2 °F 74% 30.12 in 10.0 mi NW 11.5 mph 17.3 mph N/A   Overcast
7:15 PM 32.0 °F 24.8 °F 24.8 °F 75% 30.13 in 10.0 mi WNW 8.1 mph - N/A   Mostly Cloudy
7:35 PM 31.8 °F 25.4 °F 24.8 °F 75% 30.14 in 10.0 mi WNW 6.9 mph - N/A   Scattered Clouds
7:55 PM 31.6 °F 26.0 °F 24.8 °F 76% 30.15 in 10.0 mi WNW 5.8 mph - N/A   Scattered Clouds
8:15 PM 31.1 °F 25.4 °F 24.8 °F 77% 30.15 in 10.0 mi WNW 5.8 mph - N/A   Clear
8:35 PM 30.9 °F 25.2 °F 24.8 °F 78% 30.16 in 10.0 mi WNW 5.8 mph - N/A   Clear
8:55 PM 30.4 °F 24.5 °F 24.8 °F 80% 30.16 in 10.0 mi WNW 5.8 mph - N/A   Clear
9:15 PM 30.6 °F 23.8 °F 24.8 °F 79% 30.16 in 10.0 mi WNW 6.9 mph - N/A   Clear
9:35 PM 30.4 °F 24.5 °F 24.8 °F 80% 30.17 in 10.0 mi WNW 5.8 mph - N/A   Scattered Clouds
9:55 PM 30.2 °F 24.3 °F 25.0 °F 81% 30.17 in 10.0 mi West 5.8 mph - N/A   Overcast
10:15 PM 30.2 °F 25.4 °F 25.2 °F 82% 30.18 in 10.0 mi West 4.6 mph - N/A   Overcast
10:35 PM 31.1 °F 24.5 °F 25.3 °F 79% 30.18 in 10.0 mi WNW 6.9 mph - N/A   Overcast
10:55 PM 31.1 °F 24.5 °F 25.5 °F 80% 30.18 in 10.0 mi WNW 6.9 mph - N/A   Overcast
11:15 PM 31.1 °F 24.5 °F 25.5 °F 80% 30.19 in 10.0 mi WNW 6.9 mph - N/A   Overcast
11:35 PM 30.9 °F 23.5 °F 25.3 °F 80% 30.19 in 10.0 mi West 8.1 mph - N/A   Mostly Cloudy
11:55 PM 30.9 °F 24.3 °F 25.5 °F 80% 30.19 in 10.0 mi West 6.9 mph - N/A   Overcast